[[{"header":{"parameterUnit":"m.s-1","parameterCategory":2,"la1":30.2991,"la2":30.254,"lo1":-89.0895,"lo2":-89.0444,"dy":0.0017,"dx":0.0017,"nx":28,"ny":28,"refTime":"2023-07-27T09:00:00:Z","depth":"0","parameterNumber":2,"parameterNumberName":"U-component_of_CURRENTS"},"data":[0,0,0,0,0,0,0,0,0,0,0,0,0,0,0,0,0,0,0,0,0,0,0,0,0,0,0,0,0,0,0,0,0,0,0,0,0,0,0,0,0,0,0,0,0,0,0,0,0,0,0,0,0,0,0,0,0,0,-0.2685,-0.2686,0,-0.2727,-0.2727,-0.2727,-0.2762,-0.2763,-0.2763,-0.2764,-0.2855,-0.2856,-0.2858,0,0,0,0,0,0,0,0,0,0,0,0,0,-0.2637,-0.2637,-0.2685,-0.2686,-0.2687,-0.2727,-0.2727,-0.2727,-0.2762,-0.2763,-0.2764,-0.2765,-0.2854,-0.2856,-0.2858,0,0,0,0,0,0,0,0,0,0,0,0,0,-0.2662,-0.2637,-0.2685,-0.2712,-0.2716,-0.2727,-0.2727,-0.2727,-0.2762,-0.2763,-0.2764,-0.2765,-0.2854,-0.2856,-0.2859,-0.2851,0,0,-0.2866,-0.2867,0,0,0,0,0,0,0,0,-0.266,-0.2663,-0.2707,-0.2711,-0.2714,-0.2744,-0.2743,-0.2772,-0.2761,-0.274,-0.2764,-0.2766,-0.2824,-0.2829,-0.2828,-0.2855,-0.2859,-0.2867,-0.2868,-0.2869,-0.287,0,0,0,0,0,0,0,-0.2658,-0.2661,-0.2697,-0.2708,-0.2713,-0.2723,-0.2727,-0.2748,-0.2772,-0.2742,-0.2745,-0.2756,-0.2826,-0.2825,-0.283,-0.286,-0.2866,-0.2869,-0.287,-0.2871,-0.2895,-0.2894,0,0,0,0,0,0,-0.2661,-0.266,-0.2696,-0.2699,-0.2694,-0.2723,-0.2728,-0.273,-0.2771,-0.278,-0.2755,-0.2758,-0.282,-0.2827,-0.2834,-0.2818,-0.2869,-0.2872,-0.2873,-0.2896,-0.2895,-0.2894,0,0,0,0,0,0,-0.2659,-0.2663,-0.2695,-0.2684,-0.269,-0.2723,-0.2725,-0.273,-0.2732,-0.2782,-0.2791,-0.2753,-0.2821,-0.283,-0.2842,-0.2823,-0.2873,-0.2875,-0.2897,-0.2895,-0.2894,-0.2793,0,0,0,0,0,0,-0.2657,-0.2662,-0.2655,-0.2684,-0.269,-0.2692,-0.2724,-0.273,-0.2739,-0.2742,-0.2782,-0.2792,-0.2823,-0.2838,-0.2845,-0.2827,-0.2877,-0.2898,-0.2896,-0.2895,-0.2798,-0.2789,-0.2781,0,0,0,0,0,-0.2655,-0.2634,-0.2654,-0.2659,-0.2683,-0.2691,-0.2694,-0.272,-0.2737,-0.2727,-0.2754,-0.2791,-0.2833,-0.2839,-0.2847,-0.283,-0.2899,-0.2897,-0.2895,-0.2801,-0.279,-0.2781,0,0,0,0,0,0,-0.259,-0.2637,-0.266,-0.2649,-0.267,-0.2699,-0.2687,-0.2713,-0.2723,-0.2728,-0.2775,-0.2785,-0.279,-0.2823,-0.2829,-0.2833,-0.2873,-0.2873,-0.28,-0.279,-0.2781,-0.276,-0.2879,0,0,0,0,0,-0.2579,-0.2579,-0.2625,-0.2609,-0.2621,-0.2654,-0.266,-0.2682,-0.2702,-0.2708,-0.2732,-0.2763,-0.2786,-0.2798,-0.2821,-0.2819,-0.2784,-0.2816,-0.2807,-0.28,-0.2788,-0.273,-0.2714,-0.2887,-0.2887,-0.2887,0,0,-0.2544,-0.2571,-0.2567,-0.2597,-0.2611,-0.2615,-0.2658,-0.266,-0.2656,-0.2717,-0.2701,-0.2732,-0.2779,-0.2776,-0.2781,-0.2802,-0.2717,-0.2797,-0.279,-0.2783,-0.2726,-0.2708,-0.2693,-0.2886,-0.2886,-0.2886,0,0,-0.2481,-0.2503,-0.2492,-0.2512,-0.2547,-0.257,-0.2571,-0.26,-0.2606,-0.2604,-0.2646,-0.2654,-0.2689,-0.2707,-0.2727,-0.2685,-0.2674,-0.2706,-0.2645,-0.2587,-0.2572,-0.2558,-0.2417,-0.2392,-0.2702,-0.2702,-0.2701,0,-0.2439,-0.2443,-0.2483,-0.2486,-0.2498,-0.2548,-0.2542,-0.2548,-0.2571,-0.2575,-0.2587,-0.2617,-0.2649,-0.2655,-0.2639,-0.2663,-0.2605,-0.2678,-0.2572,-0.2559,-0.2546,-0.2406,-0.2379,-0.2696,-0.2697,-0.2698,-0.2698,0,-0.2384,-0.239,-0.2379,-0.2407,-0.2418,-0.2416,-0.2453,-0.2448,-0.2465,-0.2485,-0.2483,-0.2509,-0.2539,-0.2542,-0.2577,-0.2523,-0.2496,-0.2564,-0.259,-0.2522,-0.2379,-0.2352,-0.2689,-0.2691,-0.2692,-0.2694,0,0,-0.2277,-0.2336,-0.233,-0.2347,-0.2386,-0.2389,-0.2377,-0.2392,-0.2391,-0.2392,-0.2378,-0.2395,-0.2425,-0.2449,-0.2489,-0.2431,-0.2266,-0.2453,-0.2453,-0.2295,-0.2063,-0.1991,-0.1955,-0.2318,-0.2315,-0.2313,-0.197,0,-0.2223,-0.2233,-0.2269,-0.2257,-0.2267,-0.2311,-0.2301,-0.2318,-0.2333,-0.2325,-0.2343,-0.2352,-0.239,-0.2404,-0.2351,-0.2312,-0.2205,-0.2348,-0.2169,-0.2161,-0.2094,-0.1928,-0.1836,-0.1521,-0.1944,-0.194,-0.1937,0,-0.2151,-0.2182,-0.218,-0.2221,-0.2226,-0.2222,-0.2235,-0.2234,-0.2246,-0.2256,-0.2263,-0.2298,-0.2237,-0.2283,-0.2113,-0.2203,-0.2113,-0.2053,-0.2041,-0.1999,-0.2044,-0.1675,-0.1458,-0.1276,-0.1897,-0.19,-0.1903,0,-0.2069,-0.2104,-0.211,-0.2123,-0.2175,-0.2172,-0.2189,-0.221,-0.221,-0.2214,-0.2208,-0.2178,-0.2143,-0.2047,-0.1953,-0.202,-0.1729,-0.1817,-0.1638,-0.1629,-0.1528,-0.1517,-0.1106,-0.1652,-0.1653,-0.1654,-0.1655,0,-0.1996,-0.1987,-0.2079,-0.2081,-0.2081,-0.2128,-0.2114,-0.2133,-0.2148,-0.2121,-0.2175,-0.2121,-0.2086,-0.196,-0.1874,-0.164,-0.1657,-0.1558,-0.153,-0.1483,-0.1473,-0.1301,-0.1323,-0.1641,-0.1644,-0.1646,-0.1648,0,-0.1877,-0.194,-0.1951,-0.2025,-0.2042,-0.2037,-0.2073,-0.2062,-0.2089,-0.2048,-0.2046,-0.2023,-0.1837,-0.1761,-0.1562,-0.1509,-0.1271,-0.1247,-0.1151,-0.112,-0.082,-0.0844,-0.0724,-0.0745,-0.0957,-0.0953,-0.095,0,-0.1805,-0.1809,-0.1899,-0.1912,-0.1939,-0.1955,-0.1959,-0.2014,-0.2014,-0.1961,-0.1929,-0.1783,-0.1649,-0.1326,-0.1195,-0.0961,-0.1039,-0.0776,-0.0909,-0.0709,-0.0716,-0.0964,-0.1012,-0.0684,-0.0679,-0.0674,-0.0671,0,-0.1667,-0.1712,-0.1739,-0.1795,-0.1814,-0.1837,-0.1861,-0.1863,-0.189,-0.1843,-0.172,-0.16,-0.1311,-0.1014,-0.0773,-0.0682,-0.076,-0.0681,-0.0503,-0.0463,-0.0679,-0.0717,-0.0956,-0.0633,-0.0637,-0.064,-0.0642,-0.0643,-0.1539,-0.1545,-0.1606,-0.164,-0.1685,-0.1714,-0.167,-0.1697,-0.1656,-0.1526,-0.1492,-0.1188,-0.0849,-0.0489,-0.0406,-0.0136,-0.0434,-0.0077,-0.0105,-0.0361,-0.0443,-0.0562,-0.0232,-0.0234,-0.0235,-0.0236,-0.0237,0,-0.1357,-0.14,-0.1441,-0.15,-0.152,-0.1581,-0.1583,-0.15,-0.1394,-0.1234,-0.1071,-0.055,-0.0206,0.005,0.0374,0.0472,0.0221,0.0486,0.0227,0.0159,0.0133,0.009,0.0538,0.0538,0.0538,0.0538,0.0538,0.0537,-0.1255,-0.1239,-0.1296,-0.1309,-0.1358,-0.1282,-0.1246,-0.1138,-0.0989,-0.0606,-0.0255,-0.0074,0.0303,0.0783,0.1057,0.0995,0.0823,0.0719,0.0633,0.0766,0.0711,0.0659,0.0626,0.1178,0.1179,0.0586,0.0584,0.0581]},{"header":{"parameterUnit":"m.s-1","parameterCategory":2,"la1":30.2991,"la2":30.254,"lo1":-89.0895,"lo2":-89.0444,"dy":0.0017,"dx":0.0017,"nx":28,"ny":28,"refTime":"2023-07-27T09:00:00:Z","depth":"0","parameterNumber":3,"parameterNumberName":"V-component_of_CURRENTS"},"data":[0,0,0,0,0,0,0,0,0,0,0,0,0,0,0,0,0,0,0,0,0,0,0,0,0,0,0,0,0,0,0,0,0,0,0,0,0,0,0,0,0,0,0,0,0,0,0,0,0,0,0,0,0,0,0,0,0,0,-0.1026,-0.1027,0,-0.1029,-0.1028,-0.1028,-0.0973,-0.0971,-0.097,-0.0969,-0.091,-0.0909,-0.0909,0,0,0,0,0,0,0,0,0,0,0,0,0,-0.0899,-0.0901,-0.1026,-0.1027,-0.1027,-0.1029,-0.1028,-0.1028,-0.0973,-0.0971,-0.097,-0.0969,-0.091,-0.091,-0.0909,0,0,0,0,0,0,0,0,0,0,0,0,0,-0.0929,-0.0902,-0.1026,-0.1003,-0.1001,-0.1029,-0.1028,-0.1028,-0.0973,-0.0971,-0.097,-0.0968,-0.091,-0.091,-0.0909,-0.0937,0,0,-0.0906,-0.0906,0,0,0,0,0,0,0,0,-0.0928,-0.0933,-0.1006,-0.1005,-0.1003,-0.1002,-0.0962,-0.0996,-0.0973,-0.0979,-0.0969,-0.0967,-0.0939,-0.0936,-0.0935,-0.0934,-0.0932,-0.0906,-0.0906,-0.0905,-0.0905,0,0,0,0,0,0,0,-0.0926,-0.0933,-0.1023,-0.1007,-0.1005,-0.0966,-0.0969,-0.0967,-0.0964,-0.0979,-0.0976,-0.0983,-0.0937,-0.0936,-0.0933,-0.0931,-0.0906,-0.0906,-0.0905,-0.0905,-0.099,-0.0993,0,0,0,0,0,0,-0.094,-0.0932,-0.1023,-0.1024,-0.0965,-0.0971,-0.0974,-0.1001,-0.0965,-0.096,-0.0984,-0.0981,-0.0938,-0.0934,-0.0931,-0.0997,-0.0905,-0.0905,-0.0904,-0.0988,-0.0991,-0.0994,0,0,0,0,0,0,-0.0938,-0.0949,-0.1023,-0.0979,-0.0986,-0.0976,-0.1006,-0.1002,-0.0997,-0.0971,-0.0963,-0.0984,-0.0937,-0.0932,-0.0954,-0.0993,-0.0904,-0.0904,-0.0984,-0.0989,-0.0993,-0.1107,0,0,0,0,0,0,-0.0934,-0.0949,-0.0972,-0.0981,-0.099,-0.105,-0.1008,-0.1003,-0.1007,-0.1001,-0.0969,-0.0962,-0.0935,-0.0956,-0.0954,-0.099,-0.0903,-0.0981,-0.0986,-0.0991,-0.11,-0.1115,-0.1128,0,0,0,0,0,-0.093,-0.0973,-0.0974,-0.0985,-0.1024,-0.1052,-0.1053,-0.1035,-0.1008,-0.1021,-0.1011,-0.0963,-0.0987,-0.0958,-0.0954,-0.0991,-0.0978,-0.0985,-0.0991,-0.1094,-0.1112,-0.1127,0,0,0,0,0,0,-0.0932,-0.0973,-0.0973,-0.1027,-0.1043,-0.1044,-0.1058,-0.1043,-0.1044,-0.1034,-0.0999,-0.0993,-0.1029,-0.1002,-0.0971,-0.1034,-0.0975,-0.098,-0.1054,-0.1071,-0.1084,-0.1066,-0.0902,0,0,0,0,0,-0.0948,-0.0988,-0.1013,-0.1056,-0.1068,-0.1063,-0.107,-0.106,-0.1063,-0.106,-0.1044,-0.1036,-0.1055,-0.1054,-0.1059,-0.1092,-0.1016,-0.1115,-0.1128,-0.114,-0.1126,-0.1011,-0.101,-0.1014,-0.1014,-0.1014,0,0,-0.0959,-0.0988,-0.101,-0.1058,-0.1066,-0.1105,-0.1062,-0.1083,-0.1122,-0.1056,-0.1098,-0.1084,-0.1078,-0.1121,-0.1134,-0.1098,-0.1119,-0.1148,-0.1158,-0.1136,-0.1017,-0.1015,-0.1014,-0.1019,-0.1018,-0.1017,0,0,-0.1002,-0.1032,-0.1075,-0.1096,-0.1122,-0.1132,-0.1142,-0.1152,-0.1164,-0.1208,-0.1179,-0.1182,-0.1208,-0.1205,-0.121,-0.1302,-0.1198,-0.1313,-0.1359,-0.125,-0.1246,-0.1242,-0.1214,-0.1207,-0.1314,-0.1314,-0.1314,0,-0.1009,-0.1078,-0.1089,-0.1133,-0.1165,-0.1152,-0.1203,-0.1226,-0.1242,-0.1258,-0.1238,-0.1249,-0.1248,-0.1281,-0.1329,-0.1329,-0.1264,-0.1296,-0.1261,-0.1255,-0.1249,-0.122,-0.121,-0.132,-0.132,-0.1319,-0.1318,0,-0.1084,-0.1133,-0.1162,-0.1223,-0.1258,-0.1298,-0.1336,-0.1366,-0.1375,-0.138,-0.1406,-0.1386,-0.1373,-0.1398,-0.1402,-0.1383,-0.1356,-0.1291,-0.1207,-0.1254,-0.1224,-0.1211,-0.1329,-0.1327,-0.1325,-0.1324,0,0,-0.1113,-0.1198,-0.1208,-0.1249,-0.1309,-0.1346,-0.1427,-0.1488,-0.1507,-0.1517,-0.151,-0.1573,-0.1505,-0.1506,-0.1479,-0.1409,-0.136,-0.1344,-0.1335,-0.1297,-0.1159,-0.1177,-0.1164,-0.1262,-0.1259,-0.1256,-0.1179,0,-0.1168,-0.1269,-0.1302,-0.1397,-0.1454,-0.148,-0.1546,-0.1591,-0.1607,-0.159,-0.1562,-0.1539,-0.1564,-0.1519,-0.1469,-0.1351,-0.132,-0.1391,-0.1134,-0.1129,-0.1118,-0.1146,-0.1114,-0.1041,-0.1165,-0.1163,-0.1162,0,-0.1236,-0.1297,-0.1404,-0.1486,-0.1511,-0.1562,-0.164,-0.169,-0.1683,-0.1672,-0.163,-0.1561,-0.15,-0.1466,-0.1322,-0.1353,-0.129,-0.1209,-0.1202,-0.1154,-0.1119,-0.1002,-0.1012,-0.0912,-0.1141,-0.1142,-0.1144,0,-0.1271,-0.1371,-0.1464,-0.1495,-0.1583,-0.1634,-0.1677,-0.1712,-0.1724,-0.1675,-0.1597,-0.1541,-0.1427,-0.133,-0.1241,-0.1239,-0.1049,-0.1008,-0.0992,-0.0995,-0.0885,-0.0883,-0.0738,-0.0911,-0.0911,-0.0911,-0.0912,0,-0.1334,-0.1398,-0.1481,-0.153,-0.1614,-0.166,-0.1712,-0.1745,-0.1704,-0.1639,-0.1603,-0.149,-0.1364,-0.1253,-0.1204,-0.1077,-0.1026,-0.1002,-0.0956,-0.0939,-0.0942,-0.0781,-0.0736,-0.0908,-0.0909,-0.091,-0.091,0,-0.136,-0.142,-0.1515,-0.1609,-0.1636,-0.1694,-0.1724,-0.1725,-0.1688,-0.157,-0.152,-0.1404,-0.1258,-0.1201,-0.1025,-0.0999,-0.0811,-0.0883,-0.0931,-0.0892,-0.0762,-0.0726,-0.0506,-0.0384,-0.0805,-0.0805,-0.0805,0,-0.1379,-0.1437,-0.1557,-0.1597,-0.1641,-0.1705,-0.1721,-0.1729,-0.1676,-0.1501,-0.14,-0.1255,-0.1131,-0.0971,-0.0935,-0.088,-0.0779,-0.0794,-0.0786,-0.0752,-0.0675,-0.0636,-0.0545,-0.0717,-0.0716,-0.0715,-0.0714,0,-0.1395,-0.1443,-0.1521,-0.1614,-0.1657,-0.1674,-0.1669,-0.1594,-0.1509,-0.1347,-0.1126,-0.1017,-0.0953,-0.0856,-0.0854,-0.0819,-0.0666,-0.0775,-0.0668,-0.0544,-0.0551,-0.0413,-0.0839,-0.0707,-0.0708,-0.0708,-0.0709,-0.0709,-0.1377,-0.1442,-0.1539,-0.1625,-0.1652,-0.1584,-0.1486,-0.1379,-0.1195,-0.0828,-0.0849,-0.0543,-0.0633,-0.0625,-0.0669,-0.0632,-0.0611,-0.0539,-0.0492,-0.0452,-0.034,-0.0813,-0.0669,-0.067,-0.067,-0.0671,-0.0671,0,-0.1343,-0.1436,-0.1526,-0.1587,-0.1559,-0.1583,-0.1397,-0.1194,-0.0845,-0.0552,-0.03,-0.0005,-0.0118,-0.0234,-0.0361,-0.0332,-0.0279,-0.0271,-0.0174,-0.0083,-0.0432,-0.0436,-0.0318,-0.0318,-0.0319,-0.0319,-0.0319,-0.0319,-0.1323,-0.1422,-0.1503,-0.1482,-0.1472,-0.1261,-0.108,-0.0763,-0.0468,0.0122,0.0505,0.0697,0.064,0.0161,-0.002,-0.0048,0.0156,0.0092,0.0215,-0.0033,-0.0053,-0.0073,-0.0065,0.0129,0.0129,0.0592,0.0596,0.0599]}],[{"header":{"parameterUnit":"m.s-1","parameterCategory":2,"la1":30.2991,"la2":30.254,"lo1":-89.0895,"lo2":-89.0444,"dy":0.0017,"dx":0.0017,"nx":28,"ny":28,"refTime":"2023-07-27T09:00:00:Z","depth":"2","parameterNumber":2,"parameterNumberName":"U-component_of_CURRENTS"},"data":[0,0,0,0,0,0,0,0,0,0,0,0,0,0,0,0,0,0,0,0,0,0,0,0,0,0,0,0,0,0,0,0,0,0,0,0,0,0,0,0,0,0,0,0,0,0,0,0,0,0,0,0,0,0,0,0,0,0,-0.216,-0.216,0,-0.2217,-0.2218,-0.2219,-0.2345,-0.2347,-0.235,-0.2352,-0.2465,-0.2466,-0.2467,0,0,0,0,0,0,0,0,0,0,0,0,0,-0.2022,-0.2025,-0.216,-0.216,-0.216,-0.2216,-0.2218,-0.2219,-0.2345,-0.2348,-0.235,-0.2353,-0.2464,-0.2466,-0.2467,0,0,0,0,0,0,0,0,0,0,0,0,0,-0.2085,-0.2026,-0.216,-0.2227,-0.2233,-0.2216,-0.2218,-0.2219,-0.2344,-0.2348,-0.2351,-0.2354,-0.2464,-0.2465,-0.2467,-0.2409,0,0,-0.2471,-0.2472,0,0,0,0,0,0,0,0,-0.2081,-0.209,-0.2217,-0.2222,-0.2229,-0.2274,-0.221,-0.2284,-0.2343,-0.2306,-0.2352,-0.2356,-0.2401,-0.2408,-0.2416,-0.2415,-0.242,-0.2471,-0.2472,-0.2473,-0.2473,0,0,0,0,0,0,0,-0.2077,-0.2088,-0.2187,-0.2217,-0.2224,-0.2206,-0.2221,-0.2224,-0.2339,-0.231,-0.2318,-0.2317,-0.2406,-0.2414,-0.242,-0.2421,-0.2471,-0.2473,-0.2473,-0.2474,-0.2445,-0.2444,0,0,0,0,0,0,-0.2065,-0.2084,-0.2185,-0.2188,-0.2157,-0.2206,-0.2223,-0.2259,-0.2338,-0.2351,-0.2314,-0.2322,-0.241,-0.2418,-0.2424,-0.2445,-0.2473,-0.2474,-0.2475,-0.2447,-0.2445,-0.2443,0,0,0,0,0,0,-0.2063,-0.2075,-0.2182,-0.2131,-0.2143,-0.2206,-0.2246,-0.2259,-0.2309,-0.2339,-0.2356,-0.2355,-0.2413,-0.2422,-0.2481,-0.2447,-0.2475,-0.2476,-0.2449,-0.2446,-0.2444,-0.2432,0,0,0,0,0,0,-0.2059,-0.2075,-0.2125,-0.2132,-0.2146,-0.2189,-0.2242,-0.2257,-0.2298,-0.2311,-0.2378,-0.239,-0.2417,-0.2479,-0.2482,-0.245,-0.2477,-0.2451,-0.2448,-0.2445,-0.2434,-0.2429,-0.2425,0,0,0,0,0,-0.2055,-0.2083,-0.2128,-0.2141,-0.2205,-0.2188,-0.2194,-0.225,-0.2297,-0.231,-0.2381,-0.2391,-0.2459,-0.248,-0.2484,-0.2451,-0.2452,-0.2448,-0.2445,-0.2436,-0.243,-0.2425,0,0,0,0,0,0,-0.2074,-0.2098,-0.2148,-0.2196,-0.2205,-0.2209,-0.223,-0.2259,-0.232,-0.2357,-0.2399,-0.2414,-0.2439,-0.2445,-0.2466,-0.2428,-0.2443,-0.244,-0.2435,-0.2429,-0.2425,-0.2424,-0.2478,0,0,0,0,0,-0.2094,-0.2109,-0.2137,-0.2174,-0.2187,-0.2217,-0.223,-0.2259,-0.2295,-0.2329,-0.2364,-0.2398,-0.2412,-0.2432,-0.2441,-0.2438,-0.2406,-0.2406,-0.2401,-0.2398,-0.2395,-0.2357,-0.2349,-0.2431,-0.2431,-0.2431,0,0,-0.2109,-0.2123,-0.214,-0.2175,-0.2198,-0.223,-0.2236,-0.2252,-0.2279,-0.2326,-0.2386,-0.2391,-0.2408,-0.2411,-0.2417,-0.2425,-0.2344,-0.2393,-0.239,-0.239,-0.2352,-0.2345,-0.2338,-0.2428,-0.2429,-0.2429,0,0,-0.2089,-0.2167,-0.2162,-0.2187,-0.2212,-0.224,-0.225,-0.2268,-0.2288,-0.2326,-0.2355,-0.2363,-0.2388,-0.2386,-0.2392,-0.2362,-0.2322,-0.2334,-0.2316,-0.2279,-0.2272,-0.2266,-0.2162,-0.2147,-0.2332,-0.2332,-0.2332,0,-0.212,-0.2131,-0.2156,-0.2171,-0.2192,-0.2254,-0.2265,-0.2299,-0.233,-0.2316,-0.2354,-0.2349,-0.2377,-0.2356,-0.235,-0.2354,-0.2299,-0.2345,-0.2275,-0.2269,-0.2263,-0.2158,-0.2142,-0.2331,-0.2331,-0.2331,-0.2331,0,-0.2105,-0.2133,-0.2131,-0.2191,-0.2218,-0.223,-0.2281,-0.2313,-0.2348,-0.2347,-0.2321,-0.2341,-0.2332,-0.2316,-0.2342,-0.2281,-0.224,-0.2277,-0.2296,-0.2254,-0.2145,-0.2128,-0.2329,-0.233,-0.233,-0.233,0,0,-0.2118,-0.2115,-0.213,-0.2138,-0.2225,-0.2236,-0.2296,-0.2309,-0.2331,-0.2338,-0.2301,-0.2314,-0.2289,-0.229,-0.2277,-0.2245,-0.2155,-0.224,-0.2239,-0.2146,-0.2005,-0.1901,-0.1873,-0.2178,-0.2176,-0.2175,-0.1926,0,-0.2101,-0.2105,-0.2109,-0.2146,-0.2162,-0.2228,-0.2273,-0.2308,-0.2325,-0.2317,-0.2285,-0.2271,-0.2288,-0.227,-0.2238,-0.2185,-0.2118,-0.2215,-0.205,-0.2044,-0.1968,-0.1854,-0.1759,-0.1524,-0.1909,-0.1907,-0.1905,0,-0.2099,-0.2091,-0.2107,-0.2098,-0.2115,-0.2172,-0.2238,-0.2268,-0.2286,-0.2274,-0.2244,-0.2226,-0.2168,-0.2203,-0.2072,-0.2127,-0.206,-0.2014,-0.2004,-0.1907,-0.1911,-0.1637,-0.148,-0.1877,-0.1879,-0.1881,-0.1883,0,-0.2096,-0.2084,-0.2086,-0.211,-0.2149,-0.2164,-0.2207,-0.2262,-0.2246,-0.2248,-0.2216,-0.2162,-0.2104,-0.2049,-0.196,-0.2012,-0.1791,-0.186,-0.1681,-0.167,-0.1557,-0.154,-0.1752,-0.1752,-0.1753,-0.1753,-0.1754,0,-0.2074,-0.2085,-0.2094,-0.2116,-0.2127,-0.2164,-0.2177,-0.2219,-0.2214,-0.2164,-0.2187,-0.2099,-0.2067,-0.1945,-0.1899,-0.17,-0.1737,-0.1631,-0.1597,-0.1541,-0.1526,-0.1835,-0.1849,-0.1744,-0.1746,-0.1748,-0.1749,0,-0.2078,-0.2092,-0.2094,-0.2117,-0.2127,-0.2162,-0.2162,-0.2155,-0.2177,-0.2108,-0.2096,-0.201,-0.1847,-0.1771,-0.1627,-0.158,-0.1451,-0.1374,-0.1271,-0.123,-0.1362,-0.1377,-0.1141,-0.1135,-0.113,-0.1126,-0.1122,0,-0.2085,-0.2083,-0.2108,-0.2112,-0.2125,-0.215,-0.2155,-0.2164,-0.213,-0.2027,-0.1965,-0.1798,-0.1635,-0.1365,-0.125,-0.1082,-0.1224,-0.0932,-0.1043,-0.1307,-0.1298,-0.1321,-0.1342,-0.0854,-0.0849,-0.0845,-0.0841,0,-0.2065,-0.2091,-0.208,-0.2087,-0.2097,-0.2081,-0.2075,-0.2033,-0.2003,-0.1907,-0.1722,-0.1579,-0.1297,-0.1056,-0.0866,-0.0785,-0.0969,-0.0836,-0.1108,-0.1047,-0.1023,-0.1021,-0.1053,-0.0802,-0.0806,-0.0809,-0.0811,-0.0813,-0.2052,-0.2038,-0.2019,-0.2012,-0.2018,-0.1987,-0.1927,-0.1858,-0.1744,-0.1536,-0.1482,-0.1217,-0.1094,-0.0723,-0.0598,-0.0513,-0.0599,-0.062,-0.064,-0.0662,-0.0696,-0.0669,-0.0381,-0.0383,-0.0384,-0.0385,-0.0386,0,-0.1964,-0.1935,-0.1927,-0.1899,-0.1854,-0.19,-0.1827,-0.1682,-0.1465,-0.1317,-0.1099,-0.084,-0.0628,-0.0535,-0.0326,-0.0252,-0.0305,-0.0257,-0.0368,-0.0403,-0.0435,-0.0467,-0.0086,-0.0085,-0.0085,-0.0085,0,0,-0.1912,-0.1845,-0.1822,-0.1721,-0.1706,-0.1594,-0.1527,-0.1288,-0.113,-0.0838,-0.0693,-0.0614,-0.0556,-0.0378,-0.027,-0.0163,-0.03,-0.013,-0.0364,-0.0533,-0.0566,-0.0619,-0.0701,0,0,0,0,0]},{"header":{"parameterUnit":"m.s-1","parameterCategory":2,"la1":30.2991,"la2":30.254,"lo1":-89.0895,"lo2":-89.0444,"dy":0.0017,"dx":0.0017,"nx":28,"ny":28,"refTime":"2023-07-27T09:00:00:Z","depth":"2","parameterNumber":3,"parameterNumberName":"V-component_of_CURRENTS"},"data":[0,0,0,0,0,0,0,0,0,0,0,0,0,0,0,0,0,0,0,0,0,0,0,0,0,0,0,0,0,0,0,0,0,0,0,0,0,0,0,0,0,0,0,0,0,0,0,0,0,0,0,0,0,0,0,0,0,0,-0.0431,-0.043,0,-0.0331,-0.0329,-0.0327,-0.0133,-0.0129,-0.0126,-0.0123,0.0269,0.0277,0.0284,0,0,0,0,0,0,0,0,0,0,0,0,0,-0.0542,-0.054,-0.0431,-0.043,-0.043,-0.0331,-0.0329,-0.0327,-0.0133,-0.0129,-0.0126,-0.0122,0.0267,0.0276,0.0285,0,0,0,0,0,0,0,0,0,0,0,0,0,-0.0466,-0.0539,-0.0431,-0.0327,-0.0317,-0.0331,-0.0329,-0.0326,-0.0134,-0.0129,-0.0125,-0.012,0.0264,0.0275,0.0286,0.0262,0,0,0.0321,0.0326,0,0,0,0,0,0,0,0,-0.047,-0.0461,-0.0343,-0.0334,-0.0323,-0.0246,-0.0225,-0.0117,-0.0135,-0.0195,-0.0123,-0.0118,0.0116,0.0139,0.0155,0.0281,0.0297,0.0322,0.0329,0.0333,0.0337,0,0,0,0,0,0,0,-0.0475,-0.0465,-0.0383,-0.0343,-0.0331,-0.0316,-0.0298,-0.0204,-0.0056,-0.019,-0.0177,-0.018,0.0125,0.0143,0.0166,0.0303,0.0321,0.0331,0.0338,0.0343,0.0678,0.068,0,0,0,0,0,0,-0.0504,-0.0469,-0.0387,-0.0381,-0.0395,-0.0318,-0.0298,-0.0269,-0.0063,-0.0032,-0.0184,-0.0171,0.0121,0.0152,0.0181,0.0369,0.0333,0.0344,0.035,0.0676,0.0678,0.0681,0,0,0,0,0,0,-0.0506,-0.0496,-0.0391,-0.0431,-0.0417,-0.0321,-0.0291,-0.027,-0.0184,-0.0063,-0.0023,-0.0112,0.0126,0.0165,0.0355,0.0379,0.0349,0.0359,0.0673,0.0676,0.0679,0.0617,0,0,0,0,0,0,-0.0509,-0.0497,-0.0457,-0.0432,-0.0416,-0.0377,-0.0295,-0.0272,-0.0201,-0.0181,0.001,0.0047,0.0133,0.0337,0.0366,0.0394,0.0368,0.0671,0.0675,0.0678,0.0616,0.0617,0.0618,0,0,0,0,0,-0.0513,-0.0495,-0.0455,-0.0445,-0.0373,-0.0379,-0.0368,-0.0281,-0.0202,-0.0179,-0.0004,0.0045,0.0382,0.0349,0.0382,0.0414,0.0669,0.0674,0.0678,0.0616,0.0617,0.0618,0,0,0,0,0,0,-0.0506,-0.0475,-0.0429,-0.0393,-0.0376,-0.0347,-0.0322,-0.0261,-0.0117,-0.006,0.0085,0.0134,0.0303,0.0371,0.0331,0.0523,0.0526,0.0538,0.0467,0.047,0.0471,0.0431,0.0378,0,0,0,0,0,-0.0498,-0.0476,-0.0451,-0.042,-0.0413,-0.0356,-0.0332,-0.028,-0.0177,-0.0108,0.002,0.0179,0.0327,0.0415,0.0534,0.0641,0.0624,0.0681,0.0682,0.0682,0.0674,0.0633,0.0626,0.0696,0.0696,0.0696,0,0,-0.0484,-0.047,-0.0447,-0.0419,-0.0393,-0.0364,-0.0325,-0.0295,-0.022,-0.0088,0.008,0.0192,0.0362,0.0495,0.0572,0.0569,0.0659,0.0688,0.0687,0.0679,0.0636,0.0629,0.0622,0.0699,0.0699,0.0698,0,0,-0.0502,-0.0439,-0.0441,-0.0424,-0.0401,-0.0357,-0.0338,-0.0286,-0.0203,-0.0059,0.0067,0.0194,0.0412,0.0507,0.06,0.0675,0.0668,0.072,0.0694,0.0653,0.0645,0.0638,0.0609,0.06,0.0716,0.0716,0.0716,0,-0.0478,-0.0467,-0.0444,-0.0447,-0.0421,-0.0343,-0.0326,-0.024,-0.0118,-0.0061,0.0006,0.0276,0.0415,0.0564,0.0613,0.0673,0.0648,0.0671,0.0646,0.0639,0.0632,0.0605,0.0595,0.0713,0.0713,0.0714,0.0714,0,-0.0508,-0.0478,-0.0485,-0.0434,-0.0404,-0.0386,-0.0291,-0.0206,-0.0086,-0.0023,0.0133,0.0285,0.0429,0.0493,0.0608,0.064,0.0637,0.0645,0.062,0.0619,0.0593,0.0584,0.071,0.0711,0.0711,0.0712,0,0,-0.0494,-0.0502,-0.0491,-0.0482,-0.0394,-0.0384,-0.0244,-0.0147,-0.0063,0.0057,0.0122,0.0364,0.0381,0.0485,0.0578,0.057,0.053,0.0595,0.0594,0.0528,0.0435,0.0494,0.049,0.0513,0.0511,0.0509,0.0434,0,-0.051,-0.053,-0.0512,-0.0472,-0.0461,-0.0356,-0.0244,-0.0134,-0.0016,0.0065,0.0183,0.0296,0.0399,0.0454,0.0462,0.0507,0.0503,0.055,0.0481,0.0479,0.0498,0.048,0.0489,0.0428,0.0425,0.0423,0.0422,0,-0.0518,-0.0538,-0.0527,-0.0499,-0.0484,-0.0414,-0.0259,-0.0164,-0.0018,0.0054,0.0137,0.0209,0.0271,0.0334,0.0356,0.0373,0.0415,0.0434,0.043,0.0498,0.0521,0.0434,0.0411,0.0406,0.0407,0.0408,0.041,0,-0.0521,-0.0535,-0.0527,-0.0511,-0.0451,-0.0389,-0.0308,-0.0152,-0.0088,0.0027,0.0044,0.0114,0.0147,0.0167,0.0265,0.0287,0.0245,0.0268,0.0359,0.0363,0.0367,0.0375,0.027,0.027,0.027,0.027,0.027,0,-0.053,-0.0519,-0.0524,-0.0513,-0.0469,-0.0411,-0.0322,-0.0218,-0.0128,-0.01,0.0016,0.002,0.0103,0.0114,0.0185,0.0239,0.0177,0.0345,0.0342,0.0353,0.036,0.0346,0.0356,0.0267,0.0268,0.0269,0.0269,0,-0.0511,-0.0515,-0.0517,-0.0489,-0.0465,-0.0414,-0.0335,-0.0295,-0.0191,-0.0164,-0.0147,-0.008,-0.0052,0.0037,0.0069,0.0149,0.0187,0.0239,0.0265,0.0269,0.0345,0.0354,0.0282,0.0284,0.0285,0.0286,0.0286,0,-0.0498,-0.0501,-0.0498,-0.0497,-0.0473,-0.0411,-0.0369,-0.0288,-0.0278,-0.0233,-0.0262,-0.0206,-0.0163,-0.0082,0.0068,0.0178,0.0208,0.0264,0.0335,0.0339,0.0343,0.035,0.0357,0.0307,0.0308,0.0309,0.031,0,-0.0491,-0.048,-0.0504,-0.0498,-0.0476,-0.048,-0.0437,-0.0459,-0.0401,-0.04,-0.0421,-0.039,-0.0224,-0.0082,0.0127,0.0192,0.024,0.0285,0.0231,0.0329,0.0364,0.0369,0.0373,0.0316,0.0316,0.0315,0.0315,0.0314,-0.0476,-0.0495,-0.0524,-0.052,-0.0517,-0.0557,-0.0573,-0.0588,-0.0613,-0.0598,-0.0567,-0.045,-0.0264,0.0055,0.0168,0.0321,0.0323,0.0367,0.0363,0.0358,0.0401,0.0439,0.0412,0.0412,0.0412,0.0412,0.0412,0,-0.0505,-0.0528,-0.0545,-0.058,-0.0621,-0.0574,-0.0636,-0.0667,-0.0735,-0.0645,-0.0607,-0.0385,-0.0177,0.0048,0.0311,0.0426,0.0409,0.0435,0.0402,0.0395,0.0389,0.0433,0.0452,0.0453,0.0453,0.0453,0,0,-0.0525,-0.0583,-0.0611,-0.0684,-0.0681,-0.0727,-0.0771,-0.0803,-0.0754,-0.0685,-0.0527,-0.0371,-0.0105,0.0075,0.0221,0.0363,0.0338,0.0363,0.0323,0.026,0.0252,0.0347,0.0407,0,0,0,0,0]}],[{"header":{"parameterUnit":"m.s-1","parameterCategory":2,"la1":30.2991,"la2":30.254,"lo1":-89.0895,"lo2":-89.0444,"dy":0.0017,"dx":0.0017,"nx":28,"ny":28,"refTime":"2023-07-27T09:00:00:Z","depth":"4","parameterNumber":2,"parameterNumberName":"U-component_of_CURRENTS"},"data":[0,0,0,0,0,0,0,0,0,0,0,0,0,0,0,0,0,0,0,0,0,0,0,0,0,0,0,0,0,0,0,0,0,0,0,0,0,0,0,0,0,0,0,0,0,0,0,0,0,0,0,0,0,0,0,0,0,0,-0.0829,-0.083,0,-0.0907,-0.0908,-0.0909,-0.0945,-0.0945,-0.0945,-0.0945,-0.0995,-0.0997,-0.0998,0,0,0,0,0,0,0,0,0,0,0,0,0,-0.0782,-0.0782,-0.0829,-0.083,-0.0831,-0.0907,-0.0908,-0.0909,-0.0945,-0.0945,-0.0945,-0.0945,-0.0995,-0.0996,-0.0998,0,0,0,0,0,0,0,0,0,0,0,0,0,-0.0826,-0.0782,-0.0829,-0.0858,-0.0861,-0.0907,-0.0908,-0.091,-0.0945,-0.0945,-0.0945,-0.0945,-0.0994,-0.0996,-0.0998,-0.1015,0,0,-0.1005,-0.1006,0,0,0,0,0,0,0,0,-0.0823,-0.0828,-0.0852,-0.0856,-0.086,-0.0916,-0.091,-0.0943,-0.0945,-0.0914,-0.0945,-0.0945,-0.0966,-0.097,-0.0987,-0.1018,-0.102,-0.1005,-0.1007,-0.1008,-0.1008,0,0,0,0,0,0,0,-0.082,-0.0825,-0.0861,-0.0853,-0.0858,-0.0891,-0.0896,-0.0917,-0.094,-0.0917,-0.0919,-0.0927,-0.0968,-0.0985,-0.0988,-0.1021,-0.1005,-0.1007,-0.1009,-0.1009,-0.1107,-0.1108,0,0,0,0,0,0,-0.0806,-0.0821,-0.0858,-0.0863,-0.084,-0.0891,-0.0898,-0.0898,-0.094,-0.0947,-0.0927,-0.0929,-0.0981,-0.0985,-0.099,-0.1038,-0.1008,-0.101,-0.1011,-0.1106,-0.1107,-0.1109,0,0,0,0,0,0,-0.0804,-0.0808,-0.0855,-0.0844,-0.0852,-0.0892,-0.0893,-0.09,-0.093,-0.0949,-0.0954,-0.0951,-0.0981,-0.0987,-0.102,-0.1039,-0.1011,-0.1013,-0.1104,-0.1106,-0.1108,-0.1116,0,0,0,0,0,0,-0.0802,-0.0807,-0.0814,-0.0843,-0.0852,-0.0891,-0.0893,-0.0902,-0.0934,-0.0937,-0.0971,-0.0975,-0.0981,-0.1016,-0.1022,-0.1041,-0.1014,-0.1103,-0.1105,-0.1108,-0.1114,-0.1118,-0.1122,0,0,0,0,0,-0.08,-0.0806,-0.0813,-0.0819,-0.0856,-0.0891,-0.09,-0.0928,-0.0936,-0.0954,-0.0975,-0.0974,-0.1036,-0.1019,-0.1025,-0.1045,-0.1102,-0.1105,-0.1107,-0.1113,-0.1118,-0.1122,0,0,0,0,0,0,-0.0784,-0.0811,-0.082,-0.0832,-0.0863,-0.0897,-0.0918,-0.0937,-0.0971,-0.0973,-0.0989,-0.0995,-0.103,-0.1041,-0.1022,-0.1083,-0.107,-0.1074,-0.1072,-0.1077,-0.108,-0.1064,-0.1016,0,0,0,0,0,-0.0784,-0.0802,-0.0828,-0.0842,-0.0855,-0.089,-0.0911,-0.093,-0.0958,-0.0974,-0.1003,-0.1028,-0.1046,-0.1063,-0.1084,-0.1118,-0.1115,-0.1138,-0.1141,-0.1144,-0.1137,-0.1155,-0.1159,-0.1118,-0.1118,-0.1118,0,0,-0.0781,-0.0801,-0.081,-0.0842,-0.0867,-0.0888,-0.0903,-0.0936,-0.0959,-0.0973,-0.1021,-0.1041,-0.1058,-0.1093,-0.111,-0.1105,-0.1154,-0.1148,-0.115,-0.1141,-0.1159,-0.1162,-0.1166,-0.112,-0.112,-0.112,0,0,-0.0787,-0.0801,-0.0818,-0.0842,-0.0881,-0.09,-0.0911,-0.0956,-0.0982,-0.1027,-0.1037,-0.1066,-0.1116,-0.1125,-0.1133,-0.1171,-0.117,-0.1191,-0.1198,-0.1217,-0.122,-0.1222,-0.1216,-0.1218,-0.1195,-0.1195,-0.1195,0,-0.0786,-0.0802,-0.0831,-0.0851,-0.0871,-0.0903,-0.0922,-0.0952,-0.1007,-0.1022,-0.1044,-0.1106,-0.1125,-0.1144,-0.1162,-0.1176,-0.1183,-0.1176,-0.1219,-0.1222,-0.1224,-0.1218,-0.122,-0.1196,-0.1196,-0.1196,-0.1196,0,-0.0796,-0.0815,-0.0827,-0.086,-0.0889,-0.091,-0.0946,-0.0978,-0.1015,-0.1041,-0.1087,-0.1122,-0.1153,-0.1173,-0.1181,-0.1211,-0.1208,-0.1216,-0.1201,-0.1228,-0.122,-0.1222,-0.1197,-0.1197,-0.1197,-0.1197,0,0,-0.0775,-0.0823,-0.0829,-0.0843,-0.0893,-0.0911,-0.0948,-0.0981,-0.0993,-0.1059,-0.1085,-0.1134,-0.1155,-0.1167,-0.1189,-0.1215,-0.124,-0.123,-0.1231,-0.1212,-0.127,-0.1135,-0.1124,-0.1263,-0.1264,-0.1264,-0.1255,0,-0.0774,-0.0798,-0.0835,-0.0864,-0.0874,-0.0916,-0.0945,-0.098,-0.1017,-0.1053,-0.109,-0.1122,-0.1151,-0.1171,-0.1203,-0.1237,-0.1247,-0.124,-0.1258,-0.1258,-0.1124,-0.1122,-0.1266,-0.1256,-0.1256,-0.1257,-0.1257,0,-0.077,-0.0786,-0.0807,-0.0851,-0.0861,-0.0887,-0.0923,-0.0956,-0.0998,-0.103,-0.1068,-0.11,-0.1146,-0.1169,-0.1228,-0.1229,-0.1245,-0.1267,-0.1268,-0.1136,-0.1125,-0.1228,-0.126,-0.126,-0.126,-0.1259,-0.1259,0,-0.0726,-0.0769,-0.0781,-0.0795,-0.0847,-0.0867,-0.0898,-0.0942,-0.0959,-0.101,-0.1027,-0.1087,-0.1125,-0.1167,-0.1212,-0.1231,-0.1264,-0.129,-0.1173,-0.1164,-0.1286,-0.1284,-0.1308,-0.1308,-0.1308,-0.1308,-0.1308,0,-0.0702,-0.0714,-0.0757,-0.0763,-0.0776,-0.0832,-0.0851,-0.0888,-0.0927,-0.0937,-0.1009,-0.1029,-0.1133,-0.1163,-0.12,-0.1177,-0.1249,-0.1158,-0.1148,-0.129,-0.1288,-0.1286,-0.1284,-0.1307,-0.1307,-0.1307,-0.1307,0,-0.0655,-0.0683,-0.07,-0.0747,-0.0757,-0.0769,-0.0813,-0.0814,-0.087,-0.0887,-0.0902,-0.0993,-0.1034,-0.1088,-0.1156,-0.114,-0.1141,-0.1107,-0.1229,-0.123,-0.1036,-0.1035,-0.0984,-0.0979,-0.0975,-0.0971,-0.0968,0,-0.0633,-0.0636,-0.0675,-0.0676,-0.0699,-0.0717,-0.0719,-0.0774,-0.0775,-0.0854,-0.085,-0.0907,-0.0956,-0.0945,-0.1018,-0.1025,-0.1021,-0.1007,-0.1042,-0.1004,-0.1001,-0.1007,-0.1011,-0.0961,-0.096,-0.0959,-0.0958,0,-0.0598,-0.0617,-0.0627,-0.0621,-0.0626,-0.062,-0.0634,-0.062,-0.0682,-0.0739,-0.0772,-0.0796,-0.0827,-0.0882,-0.0869,-0.0888,-0.1015,-0.0964,-0.0974,-0.1006,-0.0977,-0.0979,-0.0988,-0.0944,-0.0946,-0.0947,-0.0948,0,-0.0575,-0.0568,-0.0579,-0.0567,-0.0556,-0.0519,-0.0541,-0.0544,-0.0555,-0.0642,-0.0656,-0.0736,-0.0821,-0.0807,-0.0809,-0.0791,-0.0799,-0.0793,-0.0813,-0.0829,-0.078,-0.072,-0.0584,0,0,0,0,0,-0.0548,-0.0526,-0.0518,-0.0493,-0.0473,-0.0463,-0.0474,-0.0499,-0.0553,-0.0545,-0.0596,-0.062,-0.0641,-0.0693,-0.0645,-0.072,-0.0786,-0.0659,-0.0786,-0.0863,-0.088,-0.0835,0,0,0,0,0,0,-0.0529,-0.0519,-0.0502,-0.0422,-0.0383,-0.035,-0.0352,-0.0395,-0.0398,-0.0477,-0.0499,-0.0562,-0.0596,-0.0656,-0.063,-0.0635,-0.0695,-0.0702,-0.0699,-0.0853,-0.0869,-0.0882,-0.0842,0,0,0,0,0]},{"header":{"parameterUnit":"m.s-1","parameterCategory":2,"la1":30.2991,"la2":30.254,"lo1":-89.0895,"lo2":-89.0444,"dy":0.0017,"dx":0.0017,"nx":28,"ny":28,"refTime":"2023-07-27T09:00:00:Z","depth":"4","parameterNumber":3,"parameterNumberName":"V-component_of_CURRENTS"},"data":[0,0,0,0,0,0,0,0,0,0,0,0,0,0,0,0,0,0,0,0,0,0,0,0,0,0,0,0,0,0,0,0,0,0,0,0,0,0,0,0,0,0,0,0,0,0,0,0,0,0,0,0,0,0,0,0,0,0,-0.0523,-0.0523,0,-0.0528,-0.0528,-0.0528,-0.0542,-0.0542,-0.0542,-0.0542,-0.0556,-0.0556,-0.0557,0,0,0,0,0,0,0,0,0,0,0,0,0,-0.0501,-0.0502,-0.0523,-0.0523,-0.0523,-0.0528,-0.0528,-0.0528,-0.0542,-0.0542,-0.0542,-0.0542,-0.0556,-0.0556,-0.0557,0,0,0,0,0,0,0,0,0,0,0,0,0,-0.0511,-0.0502,-0.0523,-0.0529,-0.0529,-0.0528,-0.0528,-0.0528,-0.0542,-0.0542,-0.0542,-0.0542,-0.0556,-0.0556,-0.0557,-0.0555,0,0,-0.0558,-0.0558,0,0,0,0,0,0,0,0,-0.051,-0.0512,-0.0528,-0.0529,-0.0529,-0.0533,-0.0525,-0.0537,-0.0542,-0.0539,-0.0542,-0.0543,-0.0548,-0.0549,-0.0552,-0.0556,-0.0556,-0.0558,-0.0558,-0.0558,-0.0558,0,0,0,0,0,0,0,-0.051,-0.0511,-0.0527,-0.0528,-0.0529,-0.0523,-0.0525,-0.0528,-0.0544,-0.0539,-0.054,-0.0537,-0.0549,-0.0551,-0.0552,-0.0557,-0.0558,-0.0558,-0.0558,-0.0559,-0.0599,-0.06,0,0,0,0,0,0,-0.0507,-0.0511,-0.0527,-0.0527,-0.0518,-0.0523,-0.0525,-0.0533,-0.0544,-0.0545,-0.0537,-0.0538,-0.0551,-0.0552,-0.0553,-0.0595,-0.0558,-0.0559,-0.0559,-0.0598,-0.0599,-0.06,0,0,0,0,0,0,-0.0506,-0.0508,-0.0526,-0.0517,-0.0519,-0.0523,-0.0532,-0.0533,-0.0542,-0.0542,-0.0544,-0.0546,-0.0551,-0.0552,-0.0573,-0.0594,-0.0559,-0.0559,-0.0597,-0.0599,-0.06,-0.0651,0,0,0,0,0,0,-0.0506,-0.0508,-0.0519,-0.0517,-0.0519,-0.0535,-0.0531,-0.0533,-0.0539,-0.0541,-0.0549,-0.0551,-0.0551,-0.0572,-0.0573,-0.0594,-0.0559,-0.0596,-0.0598,-0.0599,-0.0648,-0.0654,-0.0658,0,0,0,0,0,-0.0505,-0.0515,-0.052,-0.0521,-0.0532,-0.0536,-0.0537,-0.0541,-0.0539,-0.0549,-0.056,-0.0551,-0.0583,-0.0573,-0.0574,-0.0595,-0.0595,-0.0597,-0.0599,-0.0646,-0.0653,-0.0658,0,0,0,0,0,0,-0.051,-0.0517,-0.0522,-0.0534,-0.0539,-0.0538,-0.0544,-0.0544,-0.0559,-0.0563,-0.0562,-0.0565,-0.0593,-0.0584,-0.0573,-0.0611,-0.0587,-0.0589,-0.0622,-0.0628,-0.0634,-0.0624,-0.056,0,0,0,0,0,-0.0516,-0.0527,-0.0531,-0.0542,-0.0545,-0.0546,-0.0549,-0.0553,-0.056,-0.0567,-0.0575,-0.0584,-0.0599,-0.0606,-0.0617,-0.0634,-0.0585,-0.0647,-0.0652,-0.0657,-0.0649,-0.0608,-0.0609,-0.0607,-0.0606,-0.0606,0,0,-0.0518,-0.0525,-0.053,-0.0544,-0.0547,-0.0561,-0.0549,-0.0558,-0.0574,-0.0566,-0.0595,-0.0604,-0.0609,-0.0637,-0.0647,-0.0633,-0.0626,-0.0659,-0.0663,-0.0653,-0.061,-0.061,-0.061,-0.0608,-0.0608,-0.0607,0,0,-0.0526,-0.0537,-0.0549,-0.056,-0.057,-0.0573,-0.0577,-0.0585,-0.0596,-0.0619,-0.0624,-0.0646,-0.066,-0.0675,-0.0682,-0.0718,-0.0658,-0.0721,-0.0738,-0.0699,-0.0698,-0.0697,-0.0608,-0.0598,-0.072,-0.0721,-0.0721,0,-0.053,-0.0549,-0.0553,-0.0571,-0.0584,-0.0581,-0.06,-0.0609,-0.0626,-0.0643,-0.0635,-0.0671,-0.068,-0.0713,-0.0729,-0.0731,-0.0674,-0.0716,-0.0704,-0.0702,-0.07,-0.0609,-0.0598,-0.0723,-0.0723,-0.0723,-0.0722,0,-0.0549,-0.0568,-0.0576,-0.0603,-0.0619,-0.0632,-0.0646,-0.0666,-0.0674,-0.0686,-0.0719,-0.0726,-0.0745,-0.0756,-0.0753,-0.0757,-0.0707,-0.0717,-0.0685,-0.0703,-0.0606,-0.0593,-0.0727,-0.0726,-0.0725,-0.0725,0,0,-0.0546,-0.0582,-0.0588,-0.061,-0.0639,-0.0654,-0.0686,-0.0716,-0.074,-0.0752,-0.0777,-0.0806,-0.0802,-0.0807,-0.0807,-0.0775,-0.0712,-0.0737,-0.0734,-0.0642,-0.0574,-0.0545,-0.0527,-0.0713,-0.0712,-0.0711,-0.0501,0,-0.0561,-0.0601,-0.0618,-0.066,-0.0681,-0.0703,-0.0735,-0.0766,-0.0784,-0.0808,-0.0812,-0.0835,-0.0822,-0.0832,-0.08,-0.0746,-0.0685,-0.0765,-0.0575,-0.0569,-0.0537,-0.0515,-0.0708,-0.0491,-0.0488,-0.0486,-0.0485,0,-0.0574,-0.0602,-0.0647,-0.0696,-0.0708,-0.0738,-0.0793,-0.082,-0.0854,-0.0866,-0.088,-0.0877,-0.0856,-0.0835,-0.0713,-0.0758,-0.0662,-0.0601,-0.0592,-0.0539,-0.0518,-0.0477,-0.0461,-0.0463,-0.0465,-0.0466,-0.0468,0,-0.0573,-0.0622,-0.0662,-0.068,-0.0735,-0.0767,-0.0797,-0.0844,-0.0873,-0.09,-0.091,-0.0887,-0.0861,-0.0764,-0.0649,-0.0669,-0.0481,-0.0498,-0.0366,-0.036,-0.0425,-0.0429,-0.0382,-0.0382,-0.0383,-0.0383,-0.0384,0,-0.058,-0.0614,-0.0667,-0.0691,-0.0746,-0.078,-0.0836,-0.0868,-0.0903,-0.0929,-0.0934,-0.0918,-0.084,-0.0739,-0.063,-0.0448,-0.0457,-0.0346,-0.031,-0.0448,-0.0457,-0.0414,-0.042,-0.0376,-0.0377,-0.0379,-0.038,0,-0.0575,-0.0608,-0.0658,-0.0722,-0.0748,-0.0789,-0.0858,-0.0892,-0.0921,-0.0946,-0.0952,-0.0916,-0.0779,-0.0672,-0.0494,-0.0412,-0.026,-0.0187,-0.0299,-0.0276,-0.0155,-0.0167,-0.0008,-0.0005,-0.0003,-0.0001,0.0,0,-0.0577,-0.0602,-0.0679,-0.0716,-0.0749,-0.0811,-0.0854,-0.0901,-0.0927,-0.093,-0.0928,-0.0828,-0.0782,-0.0485,-0.0386,-0.0157,-0.0141,-0.0048,-0.0142,-0.0139,-0.0119,-0.0135,-0.0149,0.0004,0.0005,0.0005,0.0006,0,-0.0583,-0.0613,-0.0653,-0.0719,-0.0774,-0.0832,-0.0885,-0.0897,-0.0934,-0.0958,-0.0875,-0.0768,-0.0604,-0.0439,-0.0264,-0.0114,-0.0118,-0.0025,-0.0029,-0.0116,-0.0122,-0.0109,-0.0126,0.0014,0.0012,0.0012,0.0011,0,-0.0589,-0.0615,-0.0665,-0.0719,-0.0785,-0.0828,-0.0862,-0.0865,-0.0882,-0.0879,-0.0833,-0.0702,-0.0632,-0.0409,-0.025,-0.0107,-0.008,-0.0052,-0.0054,-0.0062,-0.0172,-0.0194,-0.0029,0,0,0,0,0,-0.0592,-0.0614,-0.0663,-0.072,-0.0777,-0.0814,-0.0872,-0.0896,-0.0916,-0.0848,-0.0842,-0.0691,-0.0469,-0.0379,-0.022,-0.0218,-0.0066,-0.003,-0.0038,0.0057,0.0048,-0.0076,0,0,0,0,0,0,-0.0597,-0.0638,-0.0652,-0.0699,-0.0735,-0.0797,-0.0833,-0.0853,-0.0807,-0.0808,-0.0679,-0.0648,-0.0423,-0.0545,-0.0211,-0.0173,-0.0156,0.0063,0.0067,0.0062,0.0054,0.0046,-0.0083,0,0,0,0,0]}]]